TimePST,TemperatureF,Dew PointF,Humidity,Sea Level PressureIn,VisibilityMPH,Wind Direction,Wind SpeedMPH,Gust SpeedMPH,PrecipitationIn,Events,Conditions,WindDirDegrees,DateUTC
12:56 AM,6.1,3.0,87,30.45,10.0,ENE,11.5,-,N/A,,Overcast,70,2013-01-01 08:56:00
1:56 AM,5.0,1.9,87,30.45,10.0,ENE,11.5,-,N/A,,Clear,60,2013-01-01 09:56:00
2:56 AM,5.0,1.9,87,30.48,10.0,NE,11.5,-,N/A,,Clear,50,2013-01-01 10:56:00
3:56 AM,1.0,-2.0,87,30.51,10.0,Calm,Calm,-,N/A,,Clear,0,2013-01-01 11:56:00
4:56 AM,-2.0,-6.0,83,30.53,9.0,NNW,6.9,-,N/A,,Clear,340,2013-01-01 12:56:00
5:56 AM,-7.1,-11.0,83,30.60,10.0,Calm,Calm,-,N/A,,Clear,0,2013-01-01 13:56:00
6:56 AM,-11.0,-15.0,83,30.66,10.0,SE,5.8,-,N/A,,Clear,130,2013-01-01 14:56:00
7:56 AM,-8.0,-11.9,83,30.69,10.0,East,3.5,-,N/A,,Clear,100,2013-01-01 15:56:00
8:56 AM,1.0,-2.0,87,30.68,10.0,Calm,Calm,-,N/A,,Clear,0,2013-01-01 16:56:00
9:56 AM,7.0,-0.0,73,30.69,10.0,NNE,3.5,-,N/A,,Clear,20,2013-01-01 17:56:00
10:56 AM,10.0,1.9,70,30.66,10.0,Calm,Calm,-,N/A,,Clear,0,2013-01-01 18:56:00
11:56 AM,12.9,5.0,71,30.58,10.0,SSE,5.8,-,N/A,,Clear,150,2013-01-01 19:56:00
12:56 PM,14.0,7.0,74,30.58,10.0,ENE,5.8,-,N/A,,Clear,70,2013-01-01 20:56:00
1:56 PM,17.1,8.1,68,30.56,10.0,NNE,5.8,-,N/A,,Clear,20,2013-01-01 21:56:00
2:56 PM,19.0,8.1,62,30.58,10.0,NNE,5.8,-,N/A,,Clear,20,2013-01-01 22:56:00
3:56 PM,17.1,8.1,68,30.62,10.0,Calm,Calm,-,N/A,,Clear,0,2013-01-01 23:56:00
4:56 PM,8.1,3.9,83,30.66,10.0,WNW,3.5,-,N/A,,Clear,290,2013-01-02 00:56:00
5:56 PM,3.0,1.0,91,30.70,10.0,Calm,Calm,-,N/A,,Clear,0,2013-01-02 01:56:00
6:56 PM,-2.0,-5.1,87,30.74,10.0,SE,4.6,-,N/A,,Clear,140,2013-01-02 02:56:00
7:56 PM,-5.1,-8.0,87,30.74,10.0,SSE,6.9,-,N/A,,Clear,150,2013-01-02 03:56:00
8:56 PM,-6.0,-9.0,87,30.73,10.0,SE,4.6,-,N/A,,Clear,130,2013-01-02 04:56:00
9:56 PM,-9.0,-14.1,79,30.72,10.0,SSE,3.5,-,N/A,,Clear,160,2013-01-02 05:56:00
10:56 PM,-9.9,-14.1,82,30.72,10.0,Calm,Calm,-,N/A,,Clear,0,2013-01-02 06:56:00
11:56 PM,-14.1,-17.0,87,30.73,10.0,SE,4.6,-,N/A,,Clear,140,2013-01-02 07:56:00